Location: G�migny
(47.9646°N, 1.6950°E)
Time: 13:16:15
(UTC+00:00)

CENTAUR R/B - Pass Details

Date: 23 October 2019
Orbit: 781 x 1407 km, 63.4° (Epoch: 10 November)

Event Time Altitude Azimuth Distance (km) Brightness Sun altitude
Rises 18:46:19 0° 206° (SSW) 3,430 5.6 -20.0°
Reaches altitude 10° 18:48:39 10° 203° (SSW) 2,560 4.9 -20.4°
Maximum altitude 18:54:32 64° 123° (ESE) 1,090 2.5 -21.4°
Enters shadow 18:58:27 26° 50° (NE) 1,948 3.7 -22.0°
